Location: Unspecified
(0.0000°N, 0.0000°E)
Time: 06:40:27
(UTC+00:00)

Courier 1B - Pass Details

Date: 27 September 2023
Orbit: 962 x 1208 km, 28.3° (Epoch: 06 December)

Event Time Altitude Azimuth Distance (km) Brightness Sun altitude
Rises 17:35:06 0° 327° (NNW) 4,074 11.2 4.0°
Reaches altitude 10° 17:39:44 10° 351° (N) 3,077 10.2 2.8°
Maximum altitude 17:43:27 14° 20° (NNE) 2,744 9.7 1.9°
Drops below altitude 10° 17:47:05 10° 50° (NE) 3,003 9.6 1.0°
Sets 17:51:28 0° 74° (ENE) 3,907 10.0 -0.1°
